This demonstration page uses our WeatherBlox Daily Observations layout. Learn more.

Left ArrowRight Arrow

39.51506, -84.39828

Hourly Observations for June 7, 2022

Temp ( °F °C ) Dew Point ( °F °C ) Humidity (%) Winds ( mph kmh ) Pressure ( in mb ) Visibility ( mi km ) Precip ( " mm )
12:15 am 00:15 Cloudy with Light Rain 64 18 N/A N/A S 8 13 29.82 1010 5 8 0.00 0.00
12:35 am 00:35 Cloudy with Light Rain 66 19 N/A N/A S 8 13 29.81 1009 10 16 0.00 0.00
12:55 am 00:55 Cloudy 66 19 N/A N/A S 9 15 29.81 1009 10 16 0.00 0.00
1:15 am 01:15 Cloudy 66 19 N/A N/A S 7 11 29.80 1009 10 16 0.00 0.00
1:35 am 01:35 Cloudy 66 19 N/A N/A S 7 11 29.80 1009 10 16 0.00 0.00
1:55 am 01:55 Cloudy 66 19 N/A N/A S 13 20 29.80 1009 10 16 0.00 0.00
2:15 am 02:15 Cloudy with Light Rain 66 19 N/A N/A S 8 13 29.80 1009 10 16 0.00 0.00
2:35 am 02:35 Cloudy with Light Rain 66 19 N/A N/A S 10 17 29.80 1009 4 6 0.00 0.00
2:55 am 02:55 Cloudy with Light Rain 66 19 N/A N/A SSW 10 17 29.79 1009 5 8 0.00 0.00
3:15 am 03:15 Cloudy with Light Rain 66 19 N/A N/A SSW 9 15 29.79 1009 10 16 0.00 0.00
3:35 am 03:35 Cloudy 66 19 N/A N/A SSW 3 6 29.79 1009 10 16 0.00 0.00
3:55 am 03:55 Cloudy 66 19 N/A N/A S 6 9 29.78 1008 10 16 0.00 0.00
4:15 am 04:15 Cloudy 66 19 N/A N/A S 6 9 29.78 1008 10 16 0.00 0.00
4:35 am 04:35 Cloudy 66 19 N/A N/A S 6 9 29.77 1008 10 16 0.00 0.00
4:55 am 04:55 Cloudy 66 19 N/A N/A SSW 7 11 29.78 1008 10 16 0.00 0.00
5:15 am 05:15 Cloudy 66 19 N/A N/A SW 6 9 29.78 1008 10 16 0.00 0.00
5:35 am 05:35 Cloudy 66 19 N/A N/A SW 5 7 29.78 1008 10 16 0.00 0.00
5:55 am 05:55 Cloudy 66 19 N/A N/A SSW 5 7 29.78 1008 10 16 0.00 0.00
6:15 am 06:15 Cloudy 66 19 N/A N/A SW 5 7 29.79 1009 10 16 0.00 0.00
6:35 am 06:35 Cloudy 66 19 N/A N/A WSW 3 6 29.79 1009 10 16 0.00 0.00
6:55 am 06:55 Cloudy 66 19 N/A N/A WSW 5 7 29.80 1009 10 16 0.00 0.00
7:15 am 07:15 Cloudy 66 19 N/A N/A SSW 5 7 29.81 1009 10 16 0.00 0.00
7:35 am 07:35 Cloudy 66 19 N/A N/A SSW 6 9 29.80 1009 10 16 0.00 0.00
7:55 am 07:55 Cloudy 66 19 N/A N/A SSW 5 7 29.81 1009 10 16 0.00 0.00
8:15 am 08:15 Cloudy 68 19.9 68 19.8 99 99 SW 8 13 29.81 1010 10 16 0.00 0.00
8:35 am 08:35 Cloudy 69 20.3 68 20 98 98 SW 6 9 29.81 1010 10 16 0.00 0.00
8:55 am 08:55 Cloudy 70 21 68 20 94 94 SSW 6 9 29.82 1010 10 16 0.00 0.00
9:15 am 09:15 Cloudy 70 21.3 67 19.6 90 90 WSW 3 6 29.82 1010 10 16 0.01 0.25
9:35 am 09:35 Mostly Cloudy 71 21.4 66 19.1 87 87 SSW 7 11 29.82 1010 10 16 0.01 0.25
9:55 am 09:55 Mostly Cloudy 71 21.8 66 18.9 84 84 WSW 8 13 29.82 1010 10 16 0.01 0.25
10:15 am 10:15 Mostly Cloudy 71 21.8 66 18.7 83 83 WSW 10 17 29.84 1011 10 16 0.00 0.00
10:35 am 10:35 Cloudy 72 22 67 19.3 85 85 WSW 10 17 29.85 1011 10 16 0.00 0.00
10:55 am 10:55 Cloudy 72 22.2 67 19.3 84 84 WSW 12 19 29.85 1011 10 16 0.00 0.00
11:15 am 11:15 Mostly Cloudy 73 22.6 66 19 80 80 WSW 12 19 29.85 1011 10 16 0.00 0.00
11:35 am 11:35 Cloudy 73 22.9 67 19.6 82 82 SSW 9 15 29.85 1011 10 16 0.00 0.00
11:55 am 11:55 Cloudy 72 22.4 67 19.4 83 83 SSW 9 15 29.85 1011 10 16 0.00 0.00
12:15 pm 12:15 Cloudy 74 23.4 67 19.2 77 77 SW 10 17 29.85 1011 10 16 0.00 0.00
12:35 pm 12:35 Cloudy 73 23 66 19.1 79 79 SW 8 13 29.85 1011 10 16 0.00 0.00
12:55 pm 12:55 Cloudy 73 22.9 67 19.2 80 80 SW 8 13 29.85 1011 10 16 0.00 0.00
1:15 pm 13:15 Cloudy 74 23.4 67 19.4 78 78 SSW 9 15 29.86 1011 10 16 0.00 0.00
1:35 pm 13:35 Cloudy 73 22.5 67 19.7 84 84 SSW 9 15 29.86 1011 10 16 0.00 0.00
1:55 pm 13:55 Cloudy 73 22.7 67 19.7 83 83 SW 8 13 29.86 1011 10 16 0.00 0.00
2:15 pm 14:15 Mostly Cloudy 75 23.7 67 19.7 78 78 SSW 14 22 29.86 1011 10 16 0.00 0.00
2:35 pm 14:35 Mostly Cloudy 75 24 68 20 78 78 SSW 12 19 29.86 1011 10 16 0.00 0.00
2:55 pm 14:55 Mostly Cloudy 75 23.7 67 19.5 77 77 SW 9 15 29.86 1011 10 16 0.00 0.00
3:15 pm 15:15 Mostly Cloudy 76 24.4 68 20.1 77 77 SW 12 19 29.85 1011 10 16 0.00 0.00
3:35 pm 15:35 Mostly Cloudy 77 25 68 20 74 74 WSW 12 19 29.85 1011 10 16 0.00 0.00
3:55 pm 15:55 Cloudy 77 25 68 19.8 73 73 SW 13 20 29.85 1011 10 16 0.00 0.00
4:15 pm 16:15 Mostly Cloudy 78 25.6 67 19.6 70 70 SW 12 19 29.84 1011 10 16 0.00 0.00
4:35 pm 16:35 Mostly Cloudy 78 25.6 67 19.3 68 68 SW 14 22 29.84 1011 10 16 0.00 0.00
4:55 pm 16:55 Mostly Cloudy 80 26.4 67 19.2 65 65 WSW 13 20 29.84 1010 10 16 0.00 0.00
5:15 pm 17:15 Partly Cloudy 79 26.1 66 18.9 65 65 SW 13 20 29.84 1011 10 16 0.00 0.00
5:35 pm 17:35 Partly Cloudy 80 26.4 66 19.1 64 64 WSW 13 20 29.84 1010 10 16 0.00 0.00
5:55 pm 17:55 Sunny 79 26.3 66 19 64 64 WSW 9 15 29.84 1011 10 16 0.00 0.00
6:15 pm 18:15 Partly Cloudy 80 26.7 65 18.4 60 60 WSW 12 19 29.84 1010 10 16 0.00 0.00
6:35 pm 18:35 Partly Cloudy 78 25.6 64 17.7 62 62 W 9 15 29.84 1011 10 16 0.00 0.00
6:55 pm 18:55 Cloudy 77 25 65 18.6 68 68 WNW 6 9 29.85 1011 10 16 0.00 0.00
7:15 pm 19:15 Cloudy with Light Rain 72 22.1 70 21.2 95 95 W 5 7 29.87 1012 7 11 0.00 0.00
7:35 pm 19:35 Cloudy with Light Rain 72 22.4 71 21.9 97 97 W 5 7 29.87 1011 10 16 0.00 0.00
7:55 pm 19:55 Cloudy with Light Rain 73 22.5 72 22.1 98 98 WSW 5 7 29.88 1012 10 16 0.00 0.00
8:15 pm 20:15 Cloudy 73 22.6 72 22.2 98 98 W 5 7 29.88 1012 10 16 0.00 0.00
8:35 pm 20:35 Cloudy 72 22 72 22 100 100 WNW 5 7 29.89 1012 10 16 0.00 0.00
8:55 pm 20:55 Partly Cloudy 72 22 N/A N/A NW 3 6 29.89 1012 7 11 0.00 0.00
9:15 pm 21:15 Partly Cloudy 70 21.3 70 21 98 98 Calm 29.90 1013 10 16 0.00 0.00
9:35 pm 21:35 Mostly Cloudy 69 20.6 68 20.1 97 97 NNW 5 7 29.90 1013 10 16 0.00 0.00
9:55 pm 21:55 Partly Cloudy 68 20.2 68 19.9 98 98 NNW 6 9 29.90 1013 10 16 0.00 0.00
10:15 pm 22:15 Partly Cloudy 68 19.8 67 19.6 99 99 N 6 9 29.92 1013 10 16 0.00 0.00
10:35 pm 22:35 Mostly Cloudy 68 19.9 67 19.5 98 98 N 5 7 29.92 1013 10 16 0.00 0.00
10:55 pm 22:55 Cloudy 68 19.9 66 18.7 93 93 N 5 7 29.92 1013 10 16 0.00 0.00
11:15 pm 23:15 Cloudy 67 19.7 63 17.4 87 87 N 3 6 29.93 1013 10 16 0.00 0.00
11:35 pm 23:35 Mostly Cloudy 66 19 62 16.8 87 87 N 3 6 29.93 1013 10 16 0.00 0.00
11:55 pm 23:55 Mostly Cloudy 65 18.3 63 17.3 94 94 N 5 7 29.93 1013 10 16 0.00 0.00

Powered by AerisWeather